Flag for China Weather past 2 weeks in Guangzhou, Guangdong, China

Now
46 °F

Clear.


Feels Like: 41 °F
Forecast: 45 / 67 °F
Wind: 10 mph from Northwest

Location: Canton Airport

Current Time: Dec 29, 2014 at 7:05:44 AM

Latest Report: Dec 29, 2014 at 6:30 AM


Visibility: 4 mi

Pressure: 30.24 "Hg

Humidity: 76%

Dew point: 39 °F

Location of GuangzhouLocation

Historic Weather in Guangzhou — Graph

°F

Guangzhou temperature yesterday

Maximum temperature yesterday: 61 °F (at 2:30 PM)
Minimum temperature yesterday: 50 °F (at 6:00 AM)
Average temperature yesterday: 53 °F

Past Weeks' High & Low Weather Summary

 TemperatureHumidityPressure
High72 °F (Dec 15, 1:00 PM)100% (Dec 27, 8:00 AM)30.48 "Hg (Dec 27, 8:00 AM)
Low43 °F (Dec 18, 6:30 AM)12% (Dec 17, 1:00 PM)30.07 "Hg (Dec 15, 3:00 PM)
Average57 °F58%30.23 "Hg
* Reported Dec 14 6:00 AM — Dec 29 6:00 AM, Guangzhou, Weather by CustomWeather, © 2014

Note: Actual official high and low records may vary slightly from our data, if they occured in-between our weather recording intervals... More about our weather records

Advertising

Guangzhou weather history for previous 24 hours

 ConditionsComfort  
Time TempWeatherWind HumidityBarometerVisibility
6:00 AM
Dec 29
46 °FClear.6 mph76%30.21 "Hg4 mi
5:30 AM46 °FClear.6 mph76%30.21 "Hg4 mi
5:00 AM46 °FClear.3 mph76%30.21 "Hg4 mi
4:30 AM46 °FClear.3 mph82%30.21 "Hg4 mi
4:00 AM46 °FClear.3 mph76%30.21 "Hg4 mi
3:30 AM46 °FClear.6 mph82%30.21 "Hg4 mi
3:00 AM48 °FClear.6 mph76%30.21 "Hg4 mi
2:30 AM48 °FClear.6 mph76%30.21 "Hg4 mi
2:00 AM48 °FClear.6 mph76%30.21 "Hg4 mi
1:30 AM48 °FClear.8 mph76%30.21 "Hg4 mi
1:00 AM50 °FClear.8 mph71%30.21 "Hg4 mi
12:30 AM50 °FClear.8 mph71%30.24 "Hg4 mi
12:00 AM50 °FPassing clouds.8 mph71%30.24 "HgN/A
11:30 PM
Dec 28
50 °FPassing clouds.6 mph71%30.24 "HgN/A
11:00 PM50 °FPassing clouds.6 mph76%30.24 "HgN/A
10:30 PM52 °FPassing clouds.8 mph72%30.24 "HgN/A
10:00 PM52 °FClear.8 mph72%30.24 "Hg10 mi
9:30 PM52 °FPassing clouds.6 mph72%30.24 "HgN/A
9:00 PM52 °FPassing clouds.8 mph72%30.24 "HgN/A
8:30 PM52 °FClear.6 mph72%30.27 "Hg10 mi
8:00 PM52 °FPassing clouds.6 mph72%30.24 "HgN/A
7:30 PM52 °FPassing clouds.3 mph77%30.24 "HgN/A
7:00 PM54 °FClear.6 mph72%30.24 "Hg10 mi
6:30 PM54 °FPassing clouds.6 mph67%30.24 "HgN/A
6:00 PM55 °FPassing clouds.8 mph63%30.21 "HgN/A
5:30 PM55 °FScattered clouds.13 mph63%30.21 "HgN/A
5:00 PM57 °FScattered clouds.13 mph59%30.21 "HgN/A
4:30 PM57 °FScattered clouds.10 mph59%30.21 "HgN/A
4:00 PM57 °FPartly sunny.13 mph63%30.21 "HgN/A
3:30 PM59 °FPartly sunny.17 mph59%30.18 "HgN/A
3:00 PM59 °FPartly sunny.15 mph59%30.18 "HgN/A
2:30 PM61 °FPartly sunny.10 mph63%30.18 "HgN/A
2:00 PM59 °FScattered clouds.10 mph63%30.21 "HgN/A
1:30 PM57 °FBroken clouds.10 mph67%30.21 "Hg6 mi
1:00 PM57 °FBroken clouds.10 mph67%30.24 "Hg6 mi
12:30 PM57 °FBroken clouds.10 mph67%30.24 "Hg5 mi
11:30 AM55 °FBroken clouds.10 mph72%30.27 "Hg5 mi
11:00 AM55 °FBroken clouds.10 mph72%30.30 "Hg5 mi
10:30 AM54 °FBroken clouds.10 mph77%30.30 "Hg5 mi
10:00 AM54 °FBroken clouds.13 mph77%30.30 "Hg5 mi
9:30 AM54 °FScattered clouds.10 mph77%30.30 "Hg4 mi
9:00 AM52 °FScattered clouds.10 mph82%30.30 "Hg4 mi
8:30 AM52 °FBroken clouds.10 mph82%30.30 "Hg4 mi
8:00 AM50 °FBroken clouds.13 mph88%30.27 "Hg4 mi
7:30 AM50 °FBroken clouds.13 mph88%30.27 "Hg4 mi
7:00 AM50 °FMostly cloudy.13 mph88%30.27 "Hg4 mi
Weather by CustomWeather, © 2014

See weather overviewHow to use our weather pages